Yakutat, AK

1:40 AM AKST on December 14, 2017 (GMT -0900)
Yakutat

Weather History for PAYA - February, 2013

Change the Weather History Date:

Saturday, February 9, 2013

  Actual Average Record
Temperature  
Mean Temperature 38 °F 29 °F  
Max Temperature 43 °F 36 °F 47 °F (2012)
Min Temperature 32 °F 23 °F -2 °F (1969)
Degree Days  
Heating Degree Days 27 36  
Month to date heating degree days 269 324  
Since 1 July heating degree days 5668 5463  
Cooling Degree Days 0    
Month to date cooling degree days 0  
Year to date cooling degree days 0  
Moisture  
Dew Point 36 °F    
Average Humidity 0    
Maximum Humidity 0    
Minimum Humidity 0    
Precipitation  
Precipitation 2.58 in 0.39 in 2.58 in (2013)
Month to date precipitation 7.01 3.40  
Year to date precipitation 18.78 17.06  
Snow  
Snow 2.60 in 1.10 in 9.50 in (1984)
Month to date snowfall 8.3 9.7  
Since 1 July snowfall 77.4 84.7  
Snow Depth 7.00 in    
Sea Level Pressure  
Sea Level Pressure 29.86 in    
Wind  
Wind Speed 11 mph (ESE)    
Max Wind Speed 23 mph    
Max Gust Speed 41 mph    
Visibility 4 miles    
Events Fog , Rain , Snow    
T = Trace of Precipitation, MM = Missing Value Source: NWS Daily Summary

Daily Weather History Graph

Daily Weather History Graph

Search for Another Location

Airport or City:

Trip Planner

Search our weather history database for the weather conditions in past years. The results will help you decide how hot, cold, wet, or windy it might be!

Date:

Astronomy

Feb. 09, 2013 Rise Set
Actual Time 8:09 AM AKST 4:57 PM AKST
Civil Twilight 7:24 AM AKST 5:41 PM AKST
Nautical Twilight 6:36 AM AKST 6:30 PM AKST
Astronomical Twilight 5:49 AM AKST 7:17 PM AKST
Moon 7:21 AM AKST (2/9) 5:00 PM AKST (2/9)
Length of Visible Light 10h 16m
Length of Day
8h 48m
Waning Crescent, 0% of the Moon is Illuminated
Feb 9
Waning Crescent
Feb 9
New
Feb 17
First Quarter
Feb 25
Full
Mar 4
Last Quarter

Hourly Weather History & Observations

Time (AKST) Temp. Windchill Dew Point Humidity Pressure Visibility Wind Dir Wind Speed Gust Speed Precip Events Conditions
12:01 AM 33.8 °F - 33.8 °F 100% 30.02 in 10.0 mi Calm Calm - N/A   Overcast
12:13 AM 35.6 °F 32.8 °F 33.8 °F 93% 30.03 in 10.0 mi ENE 3.5 mph - N/A   Overcast
12:22 AM 35.6 °F 32.8 °F 33.8 °F 93% 30.03 in 10.0 mi ENE 3.5 mph - N/A   Overcast
12:40 AM 35.6 °F 32.8 °F 33.8 °F 93% 30.03 in 10.0 mi ENE 3.5 mph - N/A   Overcast
12:53 AM 35.1 °F 32.2 °F 34.0 °F 96% 30.03 in 10.0 mi East 3.5 mph - N/A   Overcast
1:53 AM 35.1 °F 31.0 °F 34.0 °F 96% 30.03 in 10.0 mi East 4.6 mph - 0.00 in Rain Light Rain
2:27 AM 35.6 °F 30.7 °F 33.8 °F 93% 30.03 in 10.0 mi ENE 5.8 mph - 0.01 in Rain Light Rain
2:34 AM 35.6 °F 31.7 °F 33.8 °F 93% 30.03 in 10.0 mi East 4.6 mph - 0.01 in Rain Light Rain
2:58 AM 35.6 °F 32.8 °F 33.8 °F 93% 30.03 in 6.0 mi SE 3.5 mph - 0.00 in Rain Light Rain
3:10 AM 35.6 °F 31.7 °F 33.8 °F 93% 30.04 in 5.0 mi SE 4.6 mph - 0.02 in Rain Rain
3:15 AM 35.6 °F 29.9 °F 33.8 °F 93% 30.03 in 5.0 mi SE 6.9 mph - 0.03 in Rain Light Rain
3:45 AM 35.6 °F 30.7 °F 33.8 °F 93% 30.03 in 9.0 mi East 5.8 mph - 0.05 in Rain Light Rain
3:53 AM 35.1 °F 30.1 °F 34.0 °F 96% 30.03 in 9.0 mi East 5.8 mph - 0.06 in Rain Light Rain
4:14 AM 35.6 °F 30.7 °F 33.8 °F 93% 30.02 in 10.0 mi East 5.8 mph - 0.00 in Rain Light Rain
4:53 AM 35.1 °F 30.1 °F 34.0 °F 96% 30.01 in 8.0 mi East 5.8 mph - 0.01 in Rain Light Rain
4:56 AM 35.6 °F 29.9 °F 33.8 °F 93% 30.01 in 8.0 mi East 6.9 mph - 0.01 in Rain Light Rain
5:53 AM 34.0 °F 28.0 °F 33.1 °F 96% 30.01 in 7.0 mi ENE 6.9 mph - 0.04 in Rain Light Rain
6:24 AM 33.8 °F 27.7 °F 33.8 °F 100% 29.99 in 2.5 mi ENE 6.9 mph - 0.03 in Snow Light Snow
6:41 AM 33.8 °F 27.7 °F 32.0 °F 93% 29.99 in 1.8 mi East 6.9 mph - 0.05 in Rain , Snow Light Rain
6:51 AM 33.8 °F 27.7 °F 32.0 °F 93% 29.99 in 2.0 mi East 6.9 mph - 0.07 in Rain , Snow Light Rain
6:53 AM 33.1 °F 28.7 °F 32.0 °F 96% 29.99 in 2.0 mi East 4.6 mph - 0.07 in Rain , Snow Light Rain
7:44 AM 33.8 °F 27.0 °F 32.0 °F 93% 29.96 in 1.5 mi ENE 8.1 mph - 0.08 in Rain , Snow Light Rain
7:53 AM 33.1 °F 26.1 °F 32.0 °F 96% 29.96 in 1.2 mi ENE 8.1 mph - 0.10 in Rain , Snow Light Rain
8:07 AM 33.8 °F 27.7 °F 32.0 °F 93% 29.95 in 1.0 mi ENE 6.9 mph - 0.04 in Snow Light Snow
8:53 AM 33.1 °F 25.5 °F 32.0 °F 96% 29.94 in 0.5 mi ENE 9.2 mph - 0.15 in Fog , Snow Snow
9:53 AM 32.0 °F 25.6 °F 32.0 °F 100% 29.93 in 0.5 mi ENE 6.9 mph - 0.14 in Snow Snow
10:12 AM 33.8 °F 27.7 °F 32.0 °F 93% 29.91 in 0.5 mi ENE 6.9 mph - 0.04 in Snow Snow
10:27 AM 33.8 °F 27.0 °F 32.0 °F 93% 29.91 in 0.5 mi ENE 8.1 mph - 0.09 in Snow Snow
10:34 AM 33.8 °F 26.4 °F 32.0 °F 93% 29.91 in 0.2 mi East 9.2 mph - 0.11 in Snow Heavy Snow
10:53 AM 32.0 °F 24.8 °F 32.0 °F 100% 29.90 in 0.5 mi East 8.1 mph - 0.18 in Snow Snow
11:06 AM 33.8 °F 26.4 °F 32.0 °F 93% 29.89 in 0.8 mi East 9.2 mph - 0.03 in Snow Light Snow
11:48 AM 33.8 °F 25.8 °F 32.0 °F 93% 29.87 in 1.0 mi East 10.4 mph 17.3 mph 0.15 in Snow Light Snow
11:53 AM 33.1 °F 23.9 °F 32.0 °F 96% 29.87 in 1.2 mi East 12.7 mph 18.4 mph 0.16 in Snow Light Snow
12:17 PM 33.8 °F 23.9 °F 32.0 °F 93% 29.85 in 2.0 mi East 15.0 mph 21.9 mph 0.07 in Rain Rain
12:29 PM 35.6 °F 26.2 °F 33.8 °F 93% 29.85 in 3.0 mi East 15.0 mph 25.3 mph 0.11 in Rain Rain
12:53 PM 37.0 °F 28.9 °F 35.1 °F 93% 29.83 in 4.0 mi ESE 12.7 mph 24.2 mph 0.19 in Rain Rain
1:24 PM 39.2 °F 29.6 °F 37.4 °F 93% 29.81 in 2.5 mi ESE 19.6 mph 29.9 mph 0.09 in Rain Rain
1:40 PM 39.2 °F 31.2 °F 37.4 °F 93% 29.81 in 3.0 mi ESE 13.8 mph 29.9 mph 0.13 in Rain Rain
1:53 PM 39.0 °F 29.0 °F 37.0 °F 93% 29.80 in 3.0 mi SE 20.7 mph 31.1 mph 0.16 in Rain Rain
2:18 PM 39.2 °F 29.8 °F 37.4 °F 93% 29.78 in 2.5 mi SE 18.4 mph 38.0 mph 0.05 in Rain Rain
2:53 PM 39.9 °F 30.8 °F 37.9 °F 93% 29.77 in 2.5 mi ESE 18.4 mph 33.4 mph 0.16 in Rain Rain
3:17 PM 39.2 °F 30.8 °F 39.2 °F 100% 29.76 in 2.5 mi ESE 15.0 mph 31.1 mph 0.08 in Rain Rain
3:53 PM 41.0 °F 32.5 °F 39.0 °F 93% 29.75 in 2.0 mi SE 17.3 mph 32.2 mph 0.20 in Rain Rain
4:01 PM 41.0 °F 32.8 °F 39.2 °F 93% 29.75 in 1.5 mi SE 16.1 mph 35.7 mph 0.01 in Rain Rain
4:16 PM 41.0 °F 31.9 °F 39.2 °F 93% 29.74 in 2.0 mi SE 19.6 mph 36.8 mph 0.06 in Rain Rain
4:30 PM 41.0 °F 31.9 °F 39.2 °F 93% 29.73 in 1.5 mi SE 19.6 mph 35.7 mph 0.10 in Rain Rain
4:38 PM 41.0 °F 31.9 °F 39.2 °F 93% 29.72 in 3.0 mi SE 19.6 mph 32.2 mph 0.10 in Rain Rain
4:53 PM 42.1 °F 34.5 °F 39.9 °F 92% 29.71 in 3.0 mi SE 15.0 mph 25.3 mph 0.16 in Rain Rain
5:07 PM 42.8 °F 35.1 °F 41.0 °F 93% 29.71 in 2.5 mi SE 16.1 mph 28.8 mph 0.03 in Rain Rain
5:21 PM 42.8 °F 35.4 °F 41.0 °F 93% 29.70 in 3.0 mi SE 15.0 mph 33.4 mph 0.06 in Rain Rain
5:31 PM 42.8 °F 34.8 °F 41.0 °F 93% 29.70 in 2.5 mi SE 17.3 mph 26.5 mph 0.10 in Rain Rain
5:49 PM 42.8 °F 35.1 °F 41.0 °F 93% 29.69 in 3.0 mi SE 16.1 mph 32.2 mph 0.17 in Rain Rain
5:53 PM 42.1 °F 33.6 °F 41.0 °F 96% 29.69 in 3.0 mi SE 18.4 mph 29.9 mph 0.17 in Rain Rain
6:53 PM 43.0 °F 35.4 °F 42.1 °F 97% 29.68 in 3.0 mi SSE 16.1 mph 29.9 mph 0.16 in Rain Rain
7:53 PM 43.0 °F 35.7 °F 42.1 °F 97% 29.68 in 3.0 mi SSE 15.0 mph 26.5 mph 0.19 in Rain Rain
8:53 PM 42.1 °F 34.2 °F 42.1 °F 100% 29.68 in 3.0 mi SSE 16.1 mph 31.1 mph 0.15 in Rain Rain
9:31 PM 42.8 °F 35.8 °F 42.8 °F 100% 29.68 in 2.0 mi SSE 13.8 mph 27.6 mph 0.07 in Rain Light Rain
9:53 PM 42.1 °F 36.1 °F 42.1 °F 100% 29.68 in 2.5 mi SSE 10.4 mph 19.6 mph 0.08 in Rain Light Rain
10:16 PM 42.8 °F 36.6 °F 42.8 °F 100% 29.69 in 3.0 mi SSE 11.5 mph 19.6 mph 0.00 in Rain Light Rain
10:24 PM 42.8 °F 36.6 °F 42.8 °F 100% 29.69 in 2.5 mi SSE 11.5 mph 20.7 mph 0.00 in Rain Light Rain
10:37 PM 42.8 °F 38.0 °F 42.8 °F 100% 29.69 in 3.0 mi SSE 8.1 mph 18.4 mph 0.00 in Rain Light Rain
10:53 PM 42.1 °F 37.1 °F 42.1 °F 100% 29.69 in 3.0 mi SSE 8.1 mph 17.3 mph 0.01 in Rain Light Rain
11:30 PM 42.8 °F 38.0 °F 42.8 °F 100% 29.68 in 4.0 mi SE 8.1 mph - 0.01 in Rain Light Rain
11:53 PM 42.1 °F 37.1 °F 41.0 °F 96% 29.69 in 6.0 mi SSE 8.1 mph - 0.02 in   Overcast